Madisonville, KY

5:47 AM CST on December 07, 2019 (GMT -0600)
Madisonville

Weather History for K2I0 - October, 2019

Change the Weather History Date:

Tuesday, October 8, 2019

  Actual Average (KOWB) Record (KOWB)
Temperature  
Mean Temperature 60 °F -  
Max Temperature 76 °F 73 °F 90 °F (2007)
Min Temperature 45 °F 48 °F 30 °F (1987)
Degree Days  
Heating Degree Days 4    
Growing Degree Days 10 (Base 50)    
Moisture  
Dew Point 45 °F    
Average Humidity 69    
Maximum Humidity 100    
Minimum Humidity 21    
Precipitation  
Precipitation 0.00 in - - ()
Sea Level Pressure  
Sea Level Pressure 30.16 in    
Wind  
Wind Speed 2 mph ()    
Max Wind Speed 16 mph    
Max Gust Speed 20 mph    
Visibility 6.7 miles    
Events Fog    
Averages and records for this station are not official NWS values.
T = Trace of Precipitation, MM = Missing Value Source: Averaged Metar Reports

Daily Weather History Graph

Daily Weather History Graph

Search for Another Location

Airport or City:

Astronomy

Oct. 08, 2019 Rise Set
Actual Time 6:51 AM CDT 6:22 PM CDT
Civil Twilight 6:24 AM CDT 6:48 PM CDT
Nautical Twilight 5:54 AM CDT 7:18 PM CDT
Astronomical Twilight 5:24 AM CDT 7:49 PM CDT
Moon 4:13 PM CDT (10/8) 1:48 AM CDT (10/8)
Length of Visible Light 12h 23m
Length of Day
11h 31m
Waxing Gibbous, 78% of the Moon is Illuminated
Oct 8
Waxing Gibbous
Oct 13
Full
Oct 21
Last Quarter
Oct 27
New
Nov 4
First Quarter

Hourly Weather History & Observations

Time (CDT) Temp. Dew Point Humidity Pressure Visibility Wind Dir Wind Speed Gust Speed Precip Events Conditions
12:15 AM 50.2 °F 50.2 °F 100% 30.21 in 1.5 mi Calm Calm - N/A   Mist
12:35 AM 50.4 °F 50.4 °F 100% 30.21 in 1.2 mi Calm Calm - N/A   Mist
12:55 AM 50.2 °F 50.2 °F 100% 30.20 in 0.8 mi Calm Calm - N/A   Mist
1:15 AM 49.5 °F 49.5 °F 100% 30.20 in 0.5 mi Calm Calm - N/A Fog Fog
1:35 AM 49.5 °F 49.5 °F 100% 30.20 in 7.0 mi Calm Calm - N/A   Clear
1:55 AM 47.7 °F 47.7 °F 100% 30.20 in 0.5 mi Calm Calm - N/A Fog Fog
2:35 AM 46.8 °F 46.8 °F 100% 30.19 in 0.5 mi Calm Calm - N/A Fog Fog
2:55 AM 47.8 °F 47.8 °F 100% 30.19 in 1.5 mi Calm Calm - N/A   Mostly Cloudy
3:15 AM 47.5 °F 47.5 °F 100% 30.19 in 0.2 mi Calm Calm - N/A Fog Fog
3:35 AM 46.8 °F 46.8 °F 100% 30.19 in 0.5 mi Calm Calm - N/A Fog Fog
3:55 AM 46.2 °F 46.2 °F 100% 30.19 in 0.5 mi Calm Calm - N/A Fog Fog
4:15 AM 46.4 °F 46.4 °F 100% 30.19 in 0.5 mi Calm Calm - N/A Fog Fog
4:35 AM 46.4 °F 46.4 °F 100% 30.19 in 0.5 mi Calm Calm - N/A Fog Fog
4:55 AM 45.9 °F 45.9 °F 100% 30.19 in 0.2 mi Calm Calm - N/A Fog Fog
5:15 AM 45.5 °F 45.5 °F 100% 30.20 in 0.2 mi Calm Calm - N/A Fog Fog
5:35 AM 45.5 °F 45.5 °F 100% 30.20 in 0.2 mi Calm Calm - N/A Fog Fog
5:55 AM 45.0 °F 45.0 °F 100% 30.21 in 0.5 mi Calm Calm - N/A Fog Fog
6:15 AM 45.5 °F 45.5 °F 100% 30.21 in 0.2 mi Calm Calm - N/A Fog Fog
6:35 AM 46.0 °F 46.0 °F 100% 30.21 in 0.2 mi Calm Calm - N/A Fog Fog
6:55 AM 45.5 °F 45.5 °F 100% 30.21 in 0.5 mi Calm Calm - N/A Fog Fog
7:15 AM 46.4 °F 46.4 °F 100% 30.21 in 0.2 mi Calm Calm - N/A Fog Fog
7:35 AM 46.0 °F 46.0 °F 100% 30.21 in 0.2 mi Calm Calm - N/A Fog Fog
7:55 AM 48.2 °F 48.2 °F 100% 30.21 in 0.2 mi Calm Calm - N/A Fog Fog
8:15 AM 50.5 °F 50.5 °F 100% 30.21 in 0.8 mi Calm Calm - N/A   Overcast
8:35 AM 52.3 °F 52.3 °F 100% 30.22 in 4.0 mi NNE 4.6 mph - N/A   Scattered Clouds
8:55 AM 54.7 °F 54.7 °F 100% 30.22 in 7.0 mi NE 4.6 mph - N/A   Clear
9:15 AM 57.2 °F 57.2 °F 100% 30.21 in 10.0 mi ENE 10.4 mph - N/A   Clear
9:35 AM - - N/A% 30.22 in 10.0 mi East 8.1 mph - N/A   Clear
9:55 AM 59.7 °F 59.7 °F 100% 30.22 in 10.0 mi ENE 9.2 mph - N/A   Clear
10:15 AM 63.0 °F 53.8 °F 72% 30.22 in 10.0 mi East 9.2 mph - N/A   Clear
10:35 AM 66.0 °F 52.0 °F 60% 30.21 in 10.0 mi ENE 9.2 mph - N/A   Clear
10:55 AM 66.9 °F 49.6 °F 54% 30.21 in 10.0 mi ENE 11.5 mph - N/A   Clear
11:15 AM 68.5 °F 46.8 °F 46% 30.21 in 10.0 mi East 9.2 mph - N/A   Clear
11:35 AM 70.2 °F 44.4 °F 40% 30.20 in 10.0 mi East 11.5 mph - N/A   Clear
11:55 AM 71.1 °F 41.7 °F 35% 30.19 in 10.0 mi East 11.5 mph 19.6 mph N/A   Clear
12:15 PM 71.8 °F 38.3 °F 30% 30.18 in 10.0 mi East 16.1 mph - N/A   Clear
12:35 PM 72.3 °F 38.5 °F 29% 30.18 in 10.0 mi East 11.5 mph - N/A   Clear
12:55 PM 73.4 °F 39.6 °F 29% 30.17 in 10.0 mi ENE 12.7 mph - N/A   Clear
1:15 PM 73.4 °F 40.3 °F 30% 30.16 in 10.0 mi East 9.2 mph 16.1 mph N/A   Clear
1:35 PM 74.1 °F 40.8 °F 30% 30.15 in 10.0 mi NE 10.4 mph 19.6 mph N/A   Clear
1:55 PM 75.0 °F 40.3 °F 29% 30.13 in 10.0 mi East 10.4 mph 17.3 mph N/A   Clear
2:15 PM 75.4 °F 38.5 °F 26% 30.13 in 10.0 mi ENE 10.4 mph 16.1 mph N/A   Clear
2:35 PM 75.2 °F 40.1 °F 28% 30.13 in 7.0 mi Calm Calm - N/A   Clear
2:55 PM 76.3 °F 36.9 °F 24% 30.12 in 10.0 mi East 6.9 mph - N/A   Clear
3:15 PM 76.3 °F 35.6 °F 23% 30.11 in 10.0 mi East 11.5 mph - N/A   Clear
3:35 PM 76.1 °F 34.9 °F 22% 30.11 in 10.0 mi East 8.1 mph - N/A   Clear
3:55 PM 76.6 °F 34.2 °F 21% 30.10 in 10.0 mi East 5.8 mph - N/A   Clear
4:15 PM 76.1 °F 35.2 °F 23% 30.11 in 10.0 mi East 9.2 mph - N/A   Clear
4:35 PM 75.9 °F 32.7 °F 21% 30.11 in 10.0 mi East 6.9 mph - N/A   Clear
4:55 PM 75.4 °F 35.4 °F 23% 30.10 in 10.0 mi ENE 3.5 mph - N/A   Clear
5:15 PM 74.7 °F 37.4 °F 26% 30.10 in 10.0 mi NE 6.9 mph - N/A   Clear
5:55 PM 71.4 °F 39.4 °F 31% 30.10 in 10.0 mi ENE 4.6 mph - N/A   Clear
6:15 PM 67.6 °F 41.0 °F 38% 30.10 in 10.0 mi East 3.5 mph - N/A   Clear
6:35 PM 68.0 °F 39.4 °F 35% 30.10 in 10.0 mi NE 3.5 mph - N/A   Clear
6:55 PM 62.2 °F 43.9 °F 51% 30.11 in 10.0 mi Calm Calm - N/A   Clear
7:15 PM 63.9 °F 42.8 °F 46% 30.12 in 10.0 mi Calm Calm - N/A   Clear
7:35 PM 62.1 °F 43.0 °F 50% 30.12 in 10.0 mi Calm Calm - N/A   Clear
7:55 PM 59.9 °F 45.5 °F 59% 30.12 in 10.0 mi Calm Calm - N/A   Clear
8:15 PM 57.9 °F 46.8 °F 66% 30.12 in 10.0 mi Calm Calm - N/A   Clear
8:35 PM 56.8 °F 46.4 °F 68% 30.13 in 10.0 mi Calm Calm - N/A   Clear
8:55 PM 55.6 °F 46.2 °F 71% 30.13 in 10.0 mi Calm Calm - N/A   Clear
9:15 PM 54.7 °F 46.4 °F 74% 30.13 in 10.0 mi Calm Calm - N/A   Clear
9:35 PM 55.0 °F 46.4 °F 73% 30.12 in 10.0 mi Calm Calm - N/A   Clear
9:55 PM 52.3 °F 46.4 °F 80% 30.12 in 10.0 mi Calm Calm - N/A   Clear
10:15 PM 52.5 °F 46.8 °F 81% 30.12 in 10.0 mi Calm Calm - N/A   Clear
10:35 PM 51.3 °F 46.0 °F 82% 30.12 in 10.0 mi Calm Calm - N/A   Clear
10:55 PM 51.4 °F 46.6 °F 83% 30.12 in 10.0 mi Calm Calm - N/A   Clear
11:15 PM 52.0 °F 46.4 °F 81% 30.12 in 10.0 mi Calm Calm - N/A   Clear
11:35 PM 51.4 °F 46.6 °F 83% 30.11 in 10.0 mi Calm Calm - N/A   Clear
11:55 PM 50.7 °F 46.4 °F 85% 30.11 in 10.0 mi Calm Calm - N/A   Clear